SWA1 KDAL-KHOU

Flight info

Callsign SWA1
Flight time 0h 50m
Altitude 33000
Route CURLO6 ELLVR NNEAL KIDDZ5
Aircraft B737/M-SADE2E3GIJ4RWZ/LB1D1

Departure

Time 2026-05-06 12:04
Airport Dallas Love Field (KDAL)

Arrival

Time 2026-05-06 12:54
Airport William P. Hobby Airport (KHOU)
Time Latitude Longitude Altitude Speed Heading
2026-05-06 11:28 32.84566 -96.85198 485 ft 0 kts 32°
2026-05-06 11:55 32.84553 -96.85203 478 ft 3 kts 331°
2026-05-06 11:56 32.84543 -96.85186 478 ft 3 kts 254°
2026-05-06 11:56 32.84543 -96.85185 478 ft 0 kts 250°
2026-05-06 11:58 32.84537 -96.85203 482 ft 4 kts 249°
2026-05-06 11:58 32.84516 -96.85246 482 ft 8 kts 231°
2026-05-06 11:58 32.84464 -96.85300 483 ft 13 kts 196°
2026-05-06 11:58 32.84369 -96.85274 481 ft 16 kts 140°
2026-05-06 11:59 32.84285 -96.85179 478 ft 18 kts 137°
2026-05-06 11:59 32.84188 -96.85067 483 ft 20 kts 136°
2026-05-06 11:59 32.84085 -96.84946 489 ft 21 kts 136°
2026-05-06 11:59 32.83973 -96.84817 482 ft 24 kts 136°
2026-05-06 12:00 32.83849 -96.84673 484 ft 26 kts 135°
2026-05-06 12:00 32.83713 -96.84515 487 ft 28 kts 136°
2026-05-06 12:00 32.83573 -96.84359 487 ft 17 kts 136°
2026-05-06 12:00 32.83492 -96.84282 483 ft 13 kts 173°
2026-05-06 12:01 32.83481 -96.84284 485 ft 0 kts 192°
2026-05-06 12:02 32.83475 -96.84286 484 ft 3 kts 197°
2026-05-06 12:03 32.83435 -96.84323 490 ft 10 kts 223°
2026-05-06 12:03 32.83442 -96.84391 484 ft 9 kts 313°
2026-05-06 12:03 32.83529 -96.84493 488 ft 49 kts 316°
2026-05-06 12:03 32.84010 -96.85043 493 ft 140 kts 316°
2026-05-06 12:04 32.84853 -96.85996 935 ft 184 kts 318°
2026-05-06 12:04 32.85875 -96.87100 1622 ft 215 kts 321°
2026-05-06 12:04 32.87126 -96.88140 2600 ft 220 kts 340°
2026-05-06 12:04 32.88630 -96.88362 3677 ft 220 kts 356°
2026-05-06 12:05 32.90087 -96.88823 4488 ft 215 kts 331°
2026-05-06 12:05 32.91578 -96.89239 5319 ft 229 kts 359°
2026-05-06 12:05 32.93149 -96.88797 6215 ft 243 kts 18°
2026-05-06 12:05 32.94567 -96.87604 7053 ft 261 kts 48°
2026-05-06 12:06 32.95399 -96.85630 7908 ft 276 kts 78°
2026-05-06 12:06 32.95396 -96.83325 8775 ft 284 kts 107°
2026-05-06 12:06 32.94527 -96.81224 9672 ft 284 kts 136°
2026-05-06 12:06 32.93003 -96.79778 10507 ft 280 kts 160°
2026-05-06 12:07 32.91159 -96.78813 11012 ft 301 kts 166°
2026-05-06 12:07 32.89098 -96.77889 11336 ft 329 kts 167°
2026-05-06 12:07 32.86952 -96.76934 12160 ft 336 kts 167°
2026-05-06 12:07 32.84778 -96.75944 13315 ft 333 kts 167°
2026-05-06 12:08 32.82619 -96.74942 14382 ft 333 kts 167°
2026-05-06 12:08 32.80439 -96.73928 15156 ft 341 kts 168°
2026-05-06 12:08 32.78207 -96.72884 15953 ft 347 kts 168°
2026-05-06 12:08 32.75937 -96.71823 16774 ft 353 kts 169°
2026-05-06 12:09 32.73624 -96.70775 17599 ft 354 kts 174°
2026-05-06 12:09 32.71253 -96.70409 18375 ft 337 kts 192°
2026-05-06 12:09 32.68986 -96.70840 19168 ft 325 kts 205°
2026-05-06 12:09 32.66925 -96.71865 19970 ft 321 kts 213°
2026-05-06 12:10 32.64902 -96.73020 20708 ft 325 kts 213°
2026-05-06 12:10 32.62872 -96.74168 21445 ft 329 kts 213°
2026-05-06 12:10 32.60791 -96.75333 22186 ft 332 kts 213°
2026-05-06 12:10 32.58696 -96.76530 22913 ft 335 kts 213°
2026-05-06 12:11 32.56585 -96.77746 23603 ft 339 kts 214°
2026-05-06 12:11 32.54453 -96.78973 24207 ft 342 kts 214°
2026-05-06 12:11 32.52306 -96.80206 24830 ft 344 kts 214°
2026-05-06 12:11 32.50140 -96.81447 25496 ft 347 kts 214°
2026-05-06 12:12 32.47963 -96.82692 26174 ft 346 kts 214°
2026-05-06 12:12 32.45811 -96.83918 27029 ft 341 kts 214°
2026-05-06 12:12 32.43685 -96.85128 27930 ft 336 kts 214°
2026-05-06 12:12 32.41587 -96.86325 28711 ft 334 kts 214°
2026-05-06 12:13 32.39498 -96.87520 29450 ft 333 kts 214°
2026-05-06 12:13 32.37416 -96.88708 30222 ft 330 kts 214°
2026-05-06 12:13 32.35359 -96.89880 30947 ft 326 kts 215°
2026-05-06 12:13 32.33325 -96.91038 31578 ft 323 kts 215°
2026-05-06 12:14 32.31303 -96.92126 32192 ft 328 kts 210°
2026-05-06 12:14 32.29055 -96.92797 32765 ft 338 kts 202°
2026-05-06 12:14 32.26688 -96.93173 32879 ft 349 kts 197°
2026-05-06 12:14 32.24217 -96.93104 32925 ft 360 kts 187°
2026-05-06 12:15 32.19209 -96.92260 32940 ft 366 kts 185°
2026-05-06 12:15 32.14161 -96.91326 32908 ft 367 kts 185°
2026-05-06 12:16 32.09101 -96.90417 32929 ft 368 kts 185°
2026-05-06 12:16 32.04026 -96.89527 32931 ft 369 kts 186°
2026-05-06 12:17 31.98977 -96.88650 32930 ft 369 kts 186°
2026-05-06 12:17 31.93902 -96.87769 32916 ft 368 kts 186°
2026-05-06 12:18 31.88837 -96.86892 32883 ft 367 kts 186°
2026-05-06 12:18 31.83786 -96.86019 32894 ft 367 kts 185°
2026-05-06 12:19 31.78720 -96.85145 32906 ft 368 kts 185°
2026-05-06 12:19 31.73636 -96.84268 32881 ft 370 kts 185°
2026-05-06 12:20 31.68531 -96.83149 32891 ft 382 kts 180°
2026-05-06 12:20 31.63384 -96.81533 32903 ft 383 kts 179°
2026-05-06 12:21 31.58249 -96.79899 32900 ft 382 kts 179°
2026-05-06 12:21 31.53111 -96.78292 32892 ft 381 kts 179°
2026-05-06 12:22 31.47982 -96.76703 32887 ft 381 kts 179°
2026-05-06 12:22 31.42843 -96.75116 32876 ft 381 kts 179°
2026-05-06 12:23 31.37735 -96.73539 32868 ft 382 kts 179°
2026-05-06 12:23 31.32598 -96.71955 32842 ft 382 kts 179°
2026-05-06 12:24 31.27452 -96.70369 32861 ft 382 kts 179°
2026-05-06 12:24 31.22289 -96.68783 32465 ft 385 kts 179°
2026-05-06 12:25 31.19715 -96.67985 32055 ft 384 kts 177°
2026-05-06 12:25 31.17144 -96.67009 31581 ft 390 kts 173°
2026-05-06 12:25 31.14626 -96.65901 31056 ft 393 kts 172°
2026-05-06 12:25 31.12085 -96.64735 30629 ft 391 kts 171°
2026-05-06 12:26 31.09563 -96.63578 30210 ft 389 kts 172°
2026-05-06 12:26 31.07049 -96.62441 29738 ft 386 kts 171°
2026-05-06 12:26 31.04554 -96.61328 29269 ft 382 kts 171°
2026-05-06 12:26 31.02080 -96.60235 28831 ft 377 kts 171°
2026-05-06 12:27 30.99633 -96.59160 28391 ft 374 kts 171°
2026-05-06 12:27 30.97210 -96.58099 27968 ft 370 kts 171°
2026-05-06 12:27 30.94811 -96.57050 27535 ft 367 kts 171°
2026-05-06 12:27 30.92424 -96.56005 27122 ft 364 kts 171°
2026-05-06 12:28 30.90058 -96.54970 26679 ft 362 kts 171°
2026-05-06 12:28 30.87708 -96.53942 26317 ft 359 kts 171°
2026-05-06 12:28 30.85380 -96.52923 25917 ft 356 kts 171°
2026-05-06 12:28 30.83062 -96.51911 25510 ft 354 kts 171°
2026-05-06 12:29 30.80793 -96.50920 25109 ft 352 kts 170°
2026-05-06 12:29 30.78500 -96.49920 24681 ft 350 kts 170°
2026-05-06 12:29 30.76223 -96.48927 24285 ft 348 kts 169°
2026-05-06 12:29 30.73952 -96.47938 23841 ft 348 kts 169°
2026-05-06 12:30 30.71687 -96.46951 23404 ft 347 kts 169°
2026-05-06 12:30 30.69427 -96.45967 22919 ft 345 kts 169°
2026-05-06 12:30 30.67186 -96.44989 22472 ft 342 kts 169°
2026-05-06 12:30 30.64967 -96.44019 22036 ft 339 kts 169°
2026-05-06 12:31 30.62762 -96.43056 21615 ft 337 kts 169°
2026-05-06 12:31 30.60574 -96.42098 21195 ft 335 kts 168°
2026-05-06 12:31 30.58428 -96.41027 20798 ft 336 kts 165°
2026-05-06 12:31 30.56348 -96.39876 20367 ft 335 kts 164°
2026-05-06 12:32 30.54254 -96.38695 19965 ft 333 kts 164°
2026-05-06 12:32 30.52170 -96.37527 19550 ft 332 kts 164°
2026-05-06 12:32 30.50094 -96.36375 19137 ft 330 kts 164°
2026-05-06 12:32 30.48022 -96.35234 18700 ft 329 kts 164°
2026-05-06 12:33 30.45957 -96.34104 18272 ft 328 kts 164°
2026-05-06 12:33 30.43897 -96.32978 17807 ft 327 kts 164°
2026-05-06 12:33 30.41848 -96.31859 17411 ft 323 kts 164°
2026-05-06 12:33 30.39823 -96.30775 17038 ft 318 kts 165°
2026-05-06 12:34 30.37810 -96.29714 16617 ft 316 kts 164°
2026-05-06 12:34 30.35838 -96.28677 16170 ft 314 kts 164°
2026-05-06 12:34 30.33855 -96.27634 15761 ft 312 kts 164°
2026-05-06 12:34 30.31884 -96.26596 15349 ft 310 kts 163°
2026-05-06 12:35 30.29923 -96.25564 14926 ft 309 kts 163°
2026-05-06 12:35 30.27973 -96.24536 14514 ft 308 kts 163°
2026-05-06 12:35 30.26027 -96.23510 14074 ft 306 kts 162°
2026-05-06 12:35 30.24745 -96.22834 13779 ft 306 kts 162°
2026-05-06 12:36 30.22806 -96.21814 13374 ft 305 kts 162°
2026-05-06 12:36 30.20877 -96.20792 12934 ft 304 kts 161°
2026-05-06 12:36 30.18961 -96.19770 12512 ft 302 kts 161°
2026-05-06 12:36 30.17056 -96.18754 12084 ft 300 kts 161°
2026-05-06 12:37 30.15172 -96.17749 11863 ft 293 kts 161°
2026-05-06 12:37 30.13334 -96.16764 11784 ft 290 kts 161°
2026-05-06 12:37 30.11502 -96.15785 11728 ft 291 kts 161°
2026-05-06 12:37 30.09645 -96.14793 11673 ft 296 kts 161°
2026-05-06 12:38 30.07766 -96.13790 11636 ft 298 kts 160°
2026-05-06 12:38 30.05890 -96.12786 11583 ft 297 kts 160°
2026-05-06 12:38 30.04027 -96.11741 11535 ft 297 kts 159°
2026-05-06 12:38 30.02207 -96.10693 11506 ft 296 kts 159°
2026-05-06 12:39 30.00362 -96.09626 11473 ft 295 kts 159°
2026-05-06 12:39 29.98521 -96.08564 11434 ft 295 kts 159°
2026-05-06 12:39 29.96683 -96.07507 11383 ft 295 kts 158°
2026-05-06 12:39 29.94851 -96.06455 11339 ft 294 kts 158°
2026-05-06 12:40 29.93019 -96.05404 11296 ft 292 kts 158°
2026-05-06 12:40 29.91224 -96.04375 11260 ft 291 kts 158°
2026-05-06 12:40 29.89411 -96.03337 11219 ft 290 kts 158°
2026-05-06 12:40 29.87604 -96.02303 11169 ft 290 kts 158°
2026-05-06 12:41 29.85799 -96.01271 11129 ft 289 kts 158°
2026-05-06 12:41 29.83992 -96.00238 11088 ft 289 kts 158°
2026-05-06 12:41 29.82191 -95.99194 10983 ft 292 kts 156°
2026-05-06 12:41 29.80407 -95.98035 10818 ft 296 kts 155°
2026-05-06 12:42 29.78617 -95.96833 10638 ft 297 kts 154°
2026-05-06 12:42 29.76864 -95.95661 10452 ft 293 kts 154°
2026-05-06 12:42 29.75124 -95.94507 10344 ft 282 kts 155°
2026-05-06 12:42 29.73607 -95.93134 10237 ft 278 kts 133°
2026-05-06 12:43 29.72801 -95.91165 10118 ft 271 kts 104°
2026-05-06 12:43 29.72841 -95.89045 10018 ft 261 kts 84°
2026-05-06 12:43 29.73180 -95.87016 9743 ft 255 kts 82°
2026-05-06 12:43 29.73552 -95.85019 9330 ft 255 kts 80°
2026-05-06 12:44 29.73935 -95.83040 8953 ft 252 kts 81°
2026-05-06 12:44 29.74305 -95.81073 8571 ft 250 kts 81°
2026-05-06 12:44 29.74669 -95.79124 8187 ft 248 kts 81°
2026-05-06 12:44 29.75025 -95.77212 7812 ft 247 kts 81°
2026-05-06 12:45 29.75382 -95.75288 7451 ft 245 kts 81°
2026-05-06 12:45 29.75737 -95.73371 7013 ft 246 kts 81°
2026-05-06 12:45 29.76451 -95.69515 6198 ft 246 kts 82°
2026-05-06 12:46 29.76806 -95.67588 5796 ft 245 kts 82°
2026-05-06 12:46 29.77160 -95.65669 5384 ft 246 kts 82°
2026-05-06 12:46 29.77515 -95.63743 4985 ft 246 kts 82°
2026-05-06 12:46 29.77870 -95.61813 4584 ft 247 kts 82°
2026-05-06 12:47 29.78226 -95.59879 4167 ft 246 kts 82°
2026-05-06 12:47 29.78578 -95.57968 3799 ft 243 kts 82°
2026-05-06 12:47 29.78925 -95.56082 3427 ft 239 kts 82°
2026-05-06 12:47 29.79267 -95.54222 3088 ft 235 kts 82°
2026-05-06 12:48 29.79603 -95.52394 2739 ft 232 kts 82°
2026-05-06 12:48 29.79933 -95.50594 2399 ft 228 kts 82°
2026-05-06 12:48 29.80259 -95.48814 2079 ft 224 kts 82°
2026-05-06 12:48 29.80244 -95.47117 2017 ft 210 kts 118°
2026-05-06 12:49 29.79417 -95.45781 2035 ft 206 kts 136°
2026-05-06 12:49 29.78469 -95.44548 2019 ft 201 kts 137°
2026-05-06 12:49 29.77549 -95.43407 2021 ft 187 kts 139°
2026-05-06 12:49 29.76682 -95.42364 2010 ft 174 kts 139°
2026-05-06 12:50 29.75837 -95.41359 2029 ft 175 kts 139°
2026-05-06 12:50 29.74997 -95.40359 2024 ft 171 kts 140°
2026-05-06 12:50 29.74208 -95.39417 2009 ft 159 kts 140°
2026-05-06 12:50 29.73486 -95.38554 1988 ft 143 kts 140°
2026-05-06 12:51 29.72805 -95.37746 2035 ft 140 kts 141°
2026-05-06 12:51 29.72150 -95.36965 2006 ft 131 kts 141°
2026-05-06 12:51 29.71516 -95.36210 1840 ft 131 kts 141°
2026-05-06 12:51 29.70876 -95.35450 1693 ft 134 kts 141°
2026-05-06 12:52 29.70230 -95.34679 1511 ft 132 kts 141°
2026-05-06 12:52 29.69596 -95.33923 1336 ft 131 kts 139°
2026-05-06 12:52 29.68963 -95.33169 1170 ft 131 kts 139°
2026-05-06 12:52 29.68329 -95.32412 999 ft 131 kts 138°
2026-05-06 12:53 29.67711 -95.31675 843 ft 128 kts 138°
2026-05-06 12:53 29.67099 -95.30945 686 ft 125 kts 137°
2026-05-06 12:53 29.66499 -95.30229 532 ft 123 kts 137°
2026-05-06 12:53 29.65909 -95.29525 374 ft 121 kts 135°
2026-05-06 12:54 29.65311 -95.28813 205 ft 126 kts 134°
2026-05-06 12:54 29.64708 -95.28096 74 ft 120 kts 134°
2026-05-06 12:54 29.64285 -95.27592 49 ft 23 kts 133°
2026-05-06 12:54 29.64208 -95.27501 51 ft 13 kts 130°
2026-05-06 12:55 29.64232 -95.27415 51 ft 13 kts 45°
2026-05-06 12:55 29.64294 -95.27347 48 ft 12 kts 44°
2026-05-06 12:55 29.64355 -95.27281 50 ft 12 kts 45°
2026-05-06 12:55 29.64423 -95.27280 51 ft 12 kts 316°
2026-05-06 12:56 29.64479 -95.27346 51 ft 11 kts 312°
2026-05-06 12:56 29.64534 -95.27411 49 ft 11 kts 315°
2026-05-06 12:56 29.64586 -95.27473 51 ft 11 kts 313°
2026-05-06 12:56 29.64650 -95.27513 48 ft 11 kts 354°
2026-05-06 12:57 29.64729 -95.27518 52 ft 12 kts 359°
2026-05-06 12:57 29.64814 -95.27518 52 ft 13 kts 358°
2026-05-06 12:57 29.64912 -95.27521 49 ft 15 kts 359°
2026-05-06 12:57 29.65024 -95.27525 51 ft 12 kts 357°
2026-05-06 12:58 29.65113 -95.27531 51 ft 13 kts 344°
2026-05-06 12:58 29.65146 -95.27623 52 ft 14 kts 269°
2026-05-06 12:58 29.65142 -95.27743 52 ft 16 kts 267°
2026-05-06 12:58 29.65147 -95.27864 53 ft 15 kts 286°
2026-05-06 12:59 29.65216 -95.27963 53 ft 17 kts 313°
2026-05-06 12:59 29.65319 -95.27966 53 ft 11 kts 36°
2026-05-06 12:59 29.65379 -95.27933 53 ft 9 kts 10°
2026-05-06 12:59 29.65409 -95.27933 52 ft 2 kts 356°
2026-05-06 13:00 29.65412 -95.27933 53 ft 0 kts 356°